owner,sensor,date,latitude,longitude,vertical_datum,wind_speed,wind_to_direction,wind_speed_of_gust,qcFlag 
TCOON,ioos:station:TCOON:009:1,2016-11-01T00:00:00Z,27.8398,-97.0727,0.0,99.0,-9999.0,99.0,'11144222,99999999,11144222' 
TCOON,ioos:station:TCOON:009:1,2016-11-01T00:06:00Z,27.8398,-97.0727,0.0,99.0,-9999.0,99.0,'11144222,99999999,11144222' 
TCOON,ioos:station:TCOON:009:1,2016-11-01T00:12:00Z,27.8398,-97.0727,0.0,99.0,-9999.0,99.0,'11144222,99999999,11144222' 
TCOON,ioos:station:TCOON:009:1,2016-11-01T00:18:00Z,27.8398,-97.0727,0.0,3.3,100.0,6.4,'1111122,1111122,1111122' 
TCOON,ioos:station:TCOON:009:1,2016-11-01T00:24:00Z,27.8398,-97.0727,0.0,99.0,-9999.0,99.0,'11144222,99999999,11144222' 
TCOON,ioos:station:TCOON:009:1,2016-11-01T00:30:00Z,27.8398,-97.0727,0.0,99.0,-9999.0,99.0,'11144222,99999999,11144222' 
TCOON,ioos:station:TCOON:009:1,2016-11-01T00:36:00Z,27.8398,-97.0727,0.0,99.0,-9999.0,99.0,'11144222,99999999,11144222' 
TCOON,ioos:station:TCOON:009:1,2016-11-01T00:42:00Z,27.8398,-97.0727,0.0,99.0,-9999.0,99.0,'11144222,99999999,11144222' 
TCOON,ioos:station:TCOON:009:1,2016-11-01T00:48:00Z,27.8398,-97.0727,0.0,99.0,-9999.0,99.0,'11144222,99999999,11144222' 
TCOON,ioos:station:TCOON:009:1,2016-11-01T00:54:00Z,27.8398,-97.0727,0.0,99.0,-9999.0,99.0,'11144222,99999999,11144222' 
TCOON,ioos:station:TCOON:009:1,2016-11-01T01:00:00Z,27.8398,-97.0727,0.0,99.0,-9999.0,99.0,'11144222,99999999,11144222' 
TCOON,ioos:station:TCOON:009:1,2016-11-01T01:06:00Z,27.8398,-97.0727,0.0,99.0,-9999.0,99.0,'11144222,99999999,11144222' 
TCOON,ioos:station:TCOON:009:1,2016-11-01T01:12:00Z,27.8398,-97.0727,0.0,99.0,-9999.0,99.0,'11144222,99999999,11144222' 
TCOON,ioos:station:TCOON:009:1,2016-11-01T01:18:00Z,27.8398,-97.0727,0.0,3.4,97.0,5.7,'1111122,1111122,1111122' 
TCOON,ioos:station:TCOON:009:1,2016-11-01T01:24:00Z,27.8398,-97.0727,0.0,99.0,-9999.0,99.0,'11144222,99999999,11144222' 
TCOON,ioos:station:TCOON:009:1,2016-11-01T01:30:00Z,27.8398,-97.0727,0.0,99.0,-9999.0,99.0,'11144222,99999999,11144222' 
TCOON,ioos:station:TCOON:009:1,2016-11-01T01:36:00Z,27.8398,-97.0727,0.0,99.0,-9999.0,99.0,'11144222,99999999,11144222' 
TCOON,ioos:station:TCOON:009:1,2016-11-01T01:42:00Z,27.8398,-97.0727,0.0,99.0,-9999.0,99.0,'11144222,99999999,11144222' 
TCOON,ioos:station:TCOON:009:1,2016-11-01T01:48:00Z,27.8398,-97.0727,0.0,99.0,-9999.0,99.0,'11144222,99999999,11144222' 
TCOON,ioos:station:TCOON:009:1,2016-11-01T01:54:00Z,27.8398,-97.0727,0.0,99.0,-9999.0,99.0,'11144222,99999999,11144222' 
TCOON,ioos:station:TCOON:009:1,2016-11-01T02:00:00Z,27.8398,-97.0727,0.0,99.0,-9999.0,99.0,'11144222,99999999,11144222' 
TCOON,ioos:station:TCOON:009:1,2016-11-01T02:06:00Z,27.8398,-97.0727,0.0,99.0,-9999.0,99.0,'11144222,99999999,11144222' 
TCOON,ioos:station:TCOON:009:1,2016-11-01T02:12:00Z,27.8398,-97.0727,0.0,99.0,-9999.0,99.0,'11144222,99999999,11144222' 
TCOON,ioos:station:TCOON:009:1,2016-11-01T02:18:00Z,27.8398,-97.0727,0.0,3.0,118.0,3.9,'1111122,1111122,1111122' 
TCOON,ioos:station:TCOON:009:1,2016-11-01T02:24:00Z,27.8398,-97.0727,0.0,99.0,-9999.0,99.0,'11144222,99999999,11144222' 
TCOON,ioos:station:TCOON:009:1,2016-11-01T02:30:00Z,27.8398,-97.0727,0.0,99.0,-9999.0,99.0,'11144222,99999999,11144222' 
TCOON,ioos:station:TCOON:009:1,2016-11-01T02:36:00Z,27.8398,-97.0727,0.0,99.0,-9999.0,99.0,'11144222,99999999,11144222' 
TCOON,ioos:station:TCOON:009:1,2016-11-01T02:42:00Z,27.8398,-97.0727,0.0,99.0,-9999.0,99.0,'11144222,99999999,11144222' 
TCOON,ioos:station:TCOON:009:1,2016-11-01T02:48:00Z,27.8398,-97.0727,0.0,99.0,-9999.0,99.0,'11144222,99999999,11144222' 
TCOON,ioos:station:TCOON:009:1,2016-11-01T02:54:00Z,27.8398,-97.0727,0.0,99.0,-9999.0,99.0,'11144222,99999999,11144222' 
TCOON,ioos:station:TCOON:009:1,2016-11-01T03:00:00Z,27.8398,-97.0727,0.0,99.0,-9999.0,99.0,'11144222,99999999,11144222' 
TCOON,ioos:station:TCOON:009:1,2016-11-01T03:06:00Z,27.8398,-97.0727,0.0,99.0,-9999.0,99.0,'11144222,99999999,11144222' 
TCOON,ioos:station:TCOON:009:1,2016-11-01T03:12:00Z,27.8398,-97.0727,0.0,99.0,-9999.0,99.0,'11144222,99999999,11144222' 
TCOON,ioos:station:TCOON:009:1,2016-11-01T03:18:00Z,27.8398,-97.0727,0.0,3.0,122.0,4.9,'1111122,1111122,1111122' 
TCOON,ioos:station:TCOON:009:1,2016-11-01T03:24:00Z,27.8398,-97.0727,0.0,3.0,118.0,5.1,'11111222,11111222,11111222' 
TCOON,ioos:station:TCOON:009:1,2016-11-01T03:30:00Z,27.8398,-97.0727,0.0,3.5,114.0,4.5,'11111222,11111222,11111222' 
TCOON,ioos:station:TCOON:009:1,2016-11-01T03:36:00Z,27.8398,-97.0727,0.0,99.0,-9999.0,99.0,'11144222,99999999,11144222' 
TCOON,ioos:station:TCOON:009:1,2016-11-01T03:42:00Z,27.8398,-97.0727,0.0,99.0,-9999.0,99.0,'11144222,99999999,11144222' 
TCOON,ioos:station:TCOON:009:1,2016-11-01T03:48:00Z,27.8398,-97.0727,0.0,99.0,-9999.0,99.0,'11144222,99999999,11144222' 
TCOON,ioos:station:TCOON:009:1,2016-11-01T03:54:00Z,27.8398,-97.0727,0.0,3.4,116.0,5.3,'11111222,11111222,11111222' 
TCOON,ioos:station:TCOON:009:1,2016-11-01T04:00:00Z,27.8398,-97.0727,0.0,2.7,115.0,4.5,'11111222,11111222,11111222' 
TCOON,ioos:station:TCOON:009:1,2016-11-01T04:06:00Z,27.8398,-97.0727,0.0,2.6,115.0,4.5,'11111222,11111222,11111222' 
TCOON,ioos:station:TCOON:009:1,2016-11-01T04:12:00Z,27.8398,-97.0727,0.0,3.5,116.0,4.9,'11111222,11111222,11111222' 
TCOON,ioos:station:TCOON:009:1,2016-11-01T04:18:00Z,27.8398,-97.0727,0.0,3.5,116.0,4.9,'1111122,1111122,1111122' 
TCOON,ioos:station:TCOON:009:1,2016-11-01T04:24:00Z,27.8398,-97.0727,0.0,3.1,117.0,4.4,'11111222,11111222,11111222' 
TCOON,ioos:station:TCOON:009:1,2016-11-01T04:30:00Z,27.8398,-97.0727,0.0,2.9,116.0,4.5,'11111222,11111222,11111222' 
TCOON,ioos:station:TCOON:009:1,2016-11-01T04:36:00Z,27.8398,-97.0727,0.0,3.8,119.0,5.6,'11111222,11111222,11111222' 
TCOON,ioos:station:TCOON:009:1,2016-11-01T04:42:00Z,27.8398,-97.0727,0.0,3.5,125.0,5.3,'11111222,11111222,11111222' 
TCOON,ioos:station:TCOON:009:1,2016-11-01T04:48:00Z,27.8398,-97.0727,0.0,3.2,121.0,4.9,'11111222,11111222,11111222' 
TCOON,ioos:station:TCOON:009:1,2016-11-01T04:54:00Z,27.8398,-97.0727,0.0,2.6,123.0,4.5,'11111222,11111222,11111222' 
TCOON,ioos:station:TCOON:009:1,2016-11-01T05:00:00Z,27.8398,-97.0727,0.0,2.7,123.0,4.5,'11111222,11111222,11111222' 
TCOON,ioos:station:TCOON:009:1,2016-11-01T05:06:00Z,27.8398,-97.0727,0.0,3.5,123.0,4.8,'11111222,11111222,11111222' 
TCOON,ioos:station:TCOON:009:1,2016-11-01T05:12:00Z,27.8398,-97.0727,0.0,2.8,121.0,5.0,'11111222,11111222,11111222' 
TCOON,ioos:station:TCOON:009:1,2016-11-01T05:18:00Z,27.8398,-97.0727,0.0,2.8,121.0,5.0,'1111122,1111122,1111122' 
TCOON,ioos:station:TCOON:009:1,2016-11-01T05:24:00Z,27.8398,-97.0727,0.0,3.5,129.0,4.6,'11111222,11111222,11111222' 
TCOON,ioos:station:TCOON:009:1,2016-11-01T05:30:00Z,27.8398,-97.0727,0.0,3.2,126.0,5.2,'11111222,11111222,11111222' 
TCOON,ioos:station:TCOON:009:1,2016-11-01T05:36:00Z,27.8398,-97.0727,0.0,3.1,130.0,4.7,'11111222,11111222,11111222' 
TCOON,ioos:station:TCOON:009:1,2016-11-01T05:42:00Z,27.8398,-97.0727,0.0,3.5,131.0,5.1,'11111222,11111222,11111222' 
TCOON,ioos:station:TCOON:009:1,2016-11-01T05:48:00Z,27.8398,-97.0727,0.0,2.9,132.0,5.1,'11111222,11111222,11111222' 
TCOON,ioos:station:TCOON:009:1,2016-11-01T05:54:00Z,27.8398,-97.0727,0.0,3.3,129.0,4.8,'11111222,11111222,11111222' 
TCOON,ioos:station:TCOON:009:1,2016-11-01T06:00:00Z,27.8398,-97.0727,0.0,3.8,122.0,5.0,'11111222,11111222,11111222' 
TCOON,ioos:station:TCOON:009:1,2016-11-01T06:06:00Z,27.8398,-97.0727,0.0,99.0,-9999.0,99.0,'11144222,99999999,11144222' 
TCOON,ioos:station:TCOON:009:1,2016-11-01T06:12:00Z,27.8398,-97.0727,0.0,99.0,-9999.0,99.0,'11144222,99999999,11144222' 
TCOON,ioos:station:TCOON:009:1,2016-11-01T06:18:00Z,27.8398,-97.0727,0.0,3.3,131.0,5.8,'1111122,1111122,1111122' 
TCOON,ioos:station:TCOON:009:1,2016-11-01T06:24:00Z,27.8398,-97.0727,0.0,3.6,138.0,5.8,'11111222,11111222,11111222' 
TCOON,ioos:station:TCOON:009:1,2016-11-01T06:30:00Z,27.8398,-97.0727,0.0,3.0,137.0,5.5,'11111222,11111222,11111222' 
TCOON,ioos:station:TCOON:009:1,2016-11-01T06:36:00Z,27.8398,-97.0727,0.0,3.2,130.0,5.8,'11111222,11111222,11111222' 
TCOON,ioos:station:TCOON:009:1,2016-11-01T06:42:00Z,27.8398,-97.0727,0.0,3.1,131.0,5.9,'11111222,11111222,11111222' 
TCOON,ioos:station:TCOON:009:1,2016-11-01T06:48:00Z,27.8398,-97.0727,0.0,3.5,129.0,5.3,'11111222,11111222,11111222' 
TCOON,ioos:station:TCOON:009:1,2016-11-01T06:54:00Z,27.8398,-97.0727,0.0,2.9,127.0,4.6,'11111222,11111222,11111222' 
TCOON,ioos:station:TCOON:009:1,2016-11-01T07:00:00Z,27.8398,-97.0727,0.0,3.4,131.0,4.9,'11111222,11111222,11111222' 
TCOON,ioos:station:TCOON:009:1,2016-11-01T07:06:00Z,27.8398,-97.0727,0.0,2.9,137.0,4.8,'11111222,11111222,11111222' 
TCOON,ioos:station:TCOON:009:1,2016-11-01T07:12:00Z,27.8398,-97.0727,0.0,3.5,138.0,5.5,'11111222,11111222,11111222' 
TCOON,ioos:station:TCOON:009:1,2016-11-01T07:18:00Z,27.8398,-97.0727,0.0,3.5,138.0,5.5,'1111122,1111122,1111122' 
TCOON,ioos:station:TCOON:009:1,2016-11-01T07:24:00Z,27.8398,-97.0727,0.0,2.9,141.0,4.6,'11111222,11111222,11111222' 
TCOON,ioos:station:TCOON:009:1,2016-11-01T07:30:00Z,27.8398,-97.0727,0.0,2.7,137.0,4.6,'11111222,11111222,11111222' 
TCOON,ioos:station:TCOON:009:1,2016-11-01T07:36:00Z,27.8398,-97.0727,0.0,3.7,135.0,5.2,'11111222,11111222,11111222' 
TCOON,ioos:station:TCOON:009:1,2016-11-01T07:42:00Z,27.8398,-97.0727,0.0,3.2,138.0,4.9,'11111222,11111222,11111222' 
TCOON,ioos:station:TCOON:009:1,2016-11-01T07:48:00Z,27.8398,-97.0727,0.0,2.8,139.0,5.5,'11111222,11111222,11111222' 
TCOON,ioos:station:TCOON:009:1,2016-11-01T07:54:00Z,27.8398,-97.0727,0.0,2.6,141.0,5.5,'11111222,11111222,11111222' 
TCOON,ioos:station:TCOON:009:1,2016-11-01T08:00:00Z,27.8398,-97.0727,0.0,2.6,135.0,4.6,'11111222,11111222,11111222' 
TCOON,ioos:station:TCOON:009:1,2016-11-01T08:06:00Z,27.8398,-97.0727,0.0,2.7,137.0,4.2,'11111222,11111222,11111222' 
TCOON,ioos:station:TCOON:009:1,2016-11-01T08:12:00Z,27.8398,-97.0727,0.0,2.8,137.0,4.5,'11111222,11111222,11111222' 
TCOON,ioos:station:TCOON:009:1,2016-11-01T08:18:00Z,27.8398,-97.0727,0.0,2.8,137.0,4.5,'1111122,1111122,1111122' 
TCOON,ioos:station:TCOON:009:1,2016-11-01T08:24:00Z,27.8398,-97.0727,0.0,3.0,135.0,5.2,'11111222,11111222,11111222' 
TCOON,ioos:station:TCOON:009:1,2016-11-01T08:30:00Z,27.8398,-97.0727,0.0,2.5,129.0,4.5,'11111222,11111222,11111222' 
TCOON,ioos:station:TCOON:009:1,2016-11-01T08:36:00Z,27.8398,-97.0727,0.0,3.4,133.0,4.7,'11111222,11111222,11111222' 
TCOON,ioos:station:TCOON:009:1,2016-11-01T08:42:00Z,27.8398,-97.0727,0.0,3.8,136.0,5.8,'11111222,11111222,11111222' 
TCOON,ioos:station:TCOON:009:1,2016-11-01T08:48:00Z,27.8398,-97.0727,0.0,3.2,134.0,6.0,'11111222,11111222,11111222' 
TCOON,ioos:station:TCOON:009:1,2016-11-01T08:54:00Z,27.8398,-97.0727,0.0,2.8,141.0,4.9,'11111222,11111222,11111222' 
TCOON,ioos:station:TCOON:009:1,2016-11-01T09:00:00Z,27.8398,-97.0727,0.0,2.7,134.0,4.5,'11111222,11111222,11111222' 
TCOON,ioos:station:TCOON:009:1,2016-11-01T09:06:00Z,27.8398,-97.0727,0.0,2.0,138.0,4.1,'11111222,11111222,11111222' 
TCOON,ioos:station:TCOON:009:1,2016-11-01T09:12:00Z,27.8398,-97.0727,0.0,2.7,138.0,5.1,'11111222,11111222,11111222' 
TCOON,ioos:station:TCOON:009:1,2016-11-01T09:18:00Z,27.8398,-97.0727,0.0,2.7,138.0,5.1,'1111122,1111122,1111122' 
TCOON,ioos:station:TCOON:009:1,2016-11-01T09:24:00Z,27.8398,-97.0727,0.0,2.4,137.0,4.6,'11111222,11111222,11111222' 
TCOON,ioos:station:TCOON:009:1,2016-11-01T09:30:00Z,27.8398,-97.0727,0.0,2.5,138.0,4.7,'11111222,11111222,11111222' 
TCOON,ioos:station:TCOON:009:1,2016-11-01T09:36:00Z,27.8398,-97.0727,0.0,2.5,142.0,3.8,'11111222,11111222,11111222' 
TCOON,ioos:station:TCOON:009:1,2016-11-01T09:42:00Z,27.8398,-97.0727,0.0,2.6,141.0,4.3,'11111222,11111222,11111222' 
TCOON,ioos:station:TCOON:009:1,2016-11-01T09:48:00Z,27.8398,-97.0727,0.0,2.2,142.0,4.5,'11111222,11111222,11111222' 
TCOON,ioos:station:TCOON:009:1,2016-11-01T09:54:00Z,27.8398,-97.0727,0.0,2.1,143.0,3.7,'11111222,11111222,11111222' 
TCOON,ioos:station:TCOON:009:1,2016-11-01T10:00:00Z,27.8398,-97.0727,0.0,2.0,147.0,2.7,'11111222,11111222,11111222' 
TCOON,ioos:station:TCOON:009:1,2016-11-01T10:06:00Z,27.8398,-97.0727,0.0,1.9,148.0,4.3,'11111222,11111222,11111222' 
TCOON,ioos:station:TCOON:009:1,2016-11-01T10:12:00Z,27.8398,-97.0727,0.0,2.5,158.0,3.6,'11111222,11111222,11111222' 
TCOON,ioos:station:TCOON:009:1,2016-11-01T10:18:00Z,27.8398,-97.0727,0.0,2.5,158.0,3.6,'1111122,1111122,1111122' 
TCOON,ioos:station:TCOON:009:1,2016-11-01T10:24:00Z,27.8398,-97.0727,0.0,2.2,156.0,3.2,'11111222,11111222,11111222' 
TCOON,ioos:station:TCOON:009:1,2016-11-01T10:30:00Z,27.8398,-97.0727,0.0,1.6,160.0,3.1,'11111222,11111222,11111222' 
TCOON,ioos:station:TCOON:009:1,2016-11-01T10:36:00Z,27.8398,-97.0727,0.0,1.8,159.0,3.4,'11111222,11111222,11111222' 
TCOON,ioos:station:TCOON:009:1,2016-11-01T10:42:00Z,27.8398,-97.0727,0.0,2.5,155.0,3.7,'11111222,11111222,11111222' 
TCOON,ioos:station:TCOON:009:1,2016-11-01T10:48:00Z,27.8398,-97.0727,0.0,1.9,149.0,3.8,'11111222,11111222,11111222' 
TCOON,ioos:station:TCOON:009:1,2016-11-01T10:54:00Z,27.8398,-97.0727,0.0,1.8,150.0,3.8,'11111222,11111222,11111222' 
TCOON,ioos:station:TCOON:009:1,2016-11-01T11:00:00Z,27.8398,-97.0727,0.0,1.7,150.0,3.7,'11111222,11111222,11111222' 
TCOON,ioos:station:TCOON:009:1,2016-11-01T11:06:00Z,27.8398,-97.0727,0.0,1.8,147.0,3.3,'11111222,11111222,11111222' 
TCOON,ioos:station:TCOON:009:1,2016-11-01T11:12:00Z,27.8398,-97.0727,0.0,1.4,161.0,4.2,'11111222,11111222,11111222' 
TCOON,ioos:station:TCOON:009:1,2016-11-01T11:18:00Z,27.8398,-97.0727,0.0,1.4,161.0,4.2,'1111122,1111122,1111122' 
TCOON,ioos:station:TCOON:009:1,2016-11-01T11:24:00Z,27.8398,-97.0727,0.0,2.4,163.0,4.4,'11111222,11111222,11111222' 
TCOON,ioos:station:TCOON:009:1,2016-11-01T11:30:00Z,27.8398,-97.0727,0.0,2.6,166.0,3.4,'11111222,11111222,11111222' 
TCOON,ioos:station:TCOON:009:1,2016-11-01T11:36:00Z,27.8398,-97.0727,0.0,1.7,159.0,3.1,'11111222,11111222,11111222' 
TCOON,ioos:station:TCOON:009:1,2016-11-01T11:42:00Z,27.8398,-97.0727,0.0,2.3,164.0,3.2,'11111222,11111222,11111222' 
TCOON,ioos:station:TCOON:009:1,2016-11-01T11:48:00Z,27.8398,-97.0727,0.0,1.5,163.0,2.6,'11111222,11111222,11111222' 
TCOON,ioos:station:TCOON:009:1,2016-11-01T11:54:00Z,27.8398,-97.0727,0.0,1.1,162.0,2.5,'11111222,11111222,11111222' 
TCOON,ioos:station:TCOON:009:1,2016-11-01T12:00:00Z,27.8398,-97.0727,0.0,1.7,162.0,2.7,'11111222,11111222,11111222' 
TCOON,ioos:station:TCOON:009:1,2016-11-01T12:06:00Z,27.8398,-97.0727,0.0,1.4,149.0,2.7,'11111222,11111222,11111222' 
TCOON,ioos:station:TCOON:009:1,2016-11-01T12:12:00Z,27.8398,-97.0727,0.0,1.2,165.0,2.6,'11111222,11111222,11111222' 
TCOON,ioos:station:TCOON:009:1,2016-11-01T12:18:00Z,27.8398,-97.0727,0.0,1.2,165.0,2.6,'1111122,1111122,1111122' 
TCOON,ioos:station:TCOON:009:1,2016-11-01T12:24:00Z,27.8398,-97.0727,0.0,2.5,157.0,3.5,'11111222,11111222,11111222' 
TCOON,ioos:station:TCOON:009:1,2016-11-01T12:30:00Z,27.8398,-97.0727,0.0,1.6,152.0,3.2,'11111222,11111222,11111222' 
TCOON,ioos:station:TCOON:009:1,2016-11-01T12:36:00Z,27.8398,-97.0727,0.0,1.7,152.0,3.1,'11111222,11111222,11111222' 
TCOON,ioos:station:TCOON:009:1,2016-11-01T12:42:00Z,27.8398,-97.0727,0.0,1.6,144.0,2.8,'11111222,11111222,11111222' 
TCOON,ioos:station:TCOON:009:1,2016-11-01T12:48:00Z,27.8398,-97.0727,0.0,2.1,145.0,3.4,'11111222,11111222,11111222' 
TCOON,ioos:station:TCOON:009:1,2016-11-01T12:54:00Z,27.8398,-97.0727,0.0,1.9,139.0,3.2,'11111222,11111222,11111222' 
TCOON,ioos:station:TCOON:009:1,2016-11-01T13:00:00Z,27.8398,-97.0727,0.0,1.8,137.0,3.7,'11111222,11111222,11111222' 
TCOON,ioos:station:TCOON:009:1,2016-11-01T13:06:00Z,27.8398,-97.0727,0.0,2.0,143.0,3.6,'11111222,11111222,11111222' 
TCOON,ioos:station:TCOON:009:1,2016-11-01T13:12:00Z,27.8398,-97.0727,0.0,2.2,137.0,3.4,'11111222,11111222,11111222' 
TCOON,ioos:station:TCOON:009:1,2016-11-01T13:18:00Z,27.8398,-97.0727,0.0,2.2,137.0,3.4,'1111122,1111122,1111122' 
TCOON,ioos:station:TCOON:009:1,2016-11-01T13:24:00Z,27.8398,-97.0727,0.0,1.5,143.0,2.4,'11111222,11111222,11111222' 
TCOON,ioos:station:TCOON:009:1,2016-11-01T13:30:00Z,27.8398,-97.0727,0.0,1.3,149.0,2.6,'11111222,11111222,11111222' 
TCOON,ioos:station:TCOON:009:1,2016-11-01T13:36:00Z,27.8398,-97.0727,0.0,1.8,146.0,2.9,'11111222,11111222,11111222' 
TCOON,ioos:station:TCOON:009:1,2016-11-01T13:42:00Z,27.8398,-97.0727,0.0,1.6,144.0,3.8,'11111222,11111222,11111222' 
TCOON,ioos:station:TCOON:009:1,2016-11-01T13:48:00Z,27.8398,-97.0727,0.0,2.1,151.0,3.0,'11111222,11111222,11111222' 
TCOON,ioos:station:TCOON:009:1,2016-11-01T13:54:00Z,27.8398,-97.0727,0.0,1.7,144.0,3.3,'11111222,11111222,11111222' 
TCOON,ioos:station:TCOON:009:1,2016-11-01T14:00:00Z,27.8398,-97.0727,0.0,2.0,149.0,2.6,'11111222,11111222,11111222' 
TCOON,ioos:station:TCOON:009:1,2016-11-01T14:06:00Z,27.8398,-97.0727,0.0,1.3,138.0,2.2,'11111222,11111222,11111222' 
TCOON,ioos:station:TCOON:009:1,2016-11-01T14:12:00Z,27.8398,-97.0727,0.0,1.4,138.0,2.2,'11111222,11111222,11111222' 
TCOON,ioos:station:TCOON:009:1,2016-11-01T14:18:00Z,27.8398,-97.0727,0.0,1.4,138.0,2.2,'1111122,1111122,1111122' 
TCOON,ioos:station:TCOON:009:1,2016-11-01T14:24:00Z,27.8398,-97.0727,0.0,1.3,156.0,3.5,'11111222,11111222,11111222' 
TCOON,ioos:station:TCOON:009:1,2016-11-01T14:30:00Z,27.8398,-97.0727,0.0,2.3,139.0,3.3,'11111222,11111222,11111222' 
TCOON,ioos:station:TCOON:009:1,2016-11-01T14:36:00Z,27.8398,-97.0727,0.0,2.3,164.0,3.7,'11111222,11111222,11111222' 
TCOON,ioos:station:TCOON:009:1,2016-11-01T14:42:00Z,27.8398,-97.0727,0.0,1.4,167.0,3.4,'11111222,11111222,11111222' 
TCOON,ioos:station:TCOON:009:1,2016-11-01T14:48:00Z,27.8398,-97.0727,0.0,2.5,173.0,4.4,'11111222,11111222,11111222' 
TCOON,ioos:station:TCOON:009:1,2016-11-01T14:54:00Z,27.8398,-97.0727,0.0,2.8,168.0,4.0,'11111222,11111222,11111222' 
TCOON,ioos:station:TCOON:009:1,2016-11-01T15:00:00Z,27.8398,-97.0727,0.0,3.5,155.0,5.0,'11111222,11111222,11111222' 
TCOON,ioos:station:TCOON:009:1,2016-11-01T15:06:00Z,27.8398,-97.0727,0.0,2.4,161.0,5.4,'11111222,11111222,11111222' 
TCOON,ioos:station:TCOON:009:1,2016-11-01T15:12:00Z,27.8398,-97.0727,0.0,2.3,155.0,4.6,'11111222,11111222,11111222' 
TCOON,ioos:station:TCOON:009:1,2016-11-01T15:18:00Z,27.8398,-97.0727,0.0,2.3,155.0,4.6,'1111122,1111122,1111122' 
TCOON,ioos:station:TCOON:009:1,2016-11-01T15:24:00Z,27.8398,-97.0727,0.0,2.6,152.0,4.9,'11111222,11111222,11111222' 
TCOON,ioos:station:TCOON:009:1,2016-11-01T15:30:00Z,27.8398,-97.0727,0.0,3.6,162.0,5.2,'11111222,11111222,11111222' 
TCOON,ioos:station:TCOON:009:1,2016-11-01T15:36:00Z,27.8398,-97.0727,0.0,3.0,167.0,4.6,'11111222,11111222,11111222' 
TCOON,ioos:station:TCOON:009:1,2016-11-01T15:42:00Z,27.8398,-97.0727,0.0,3.4,177.0,5.6,'11111222,11111222,11111222' 
TCOON,ioos:station:TCOON:009:1,2016-11-01T15:48:00Z,27.8398,-97.0727,0.0,3.7,170.0,6.0,'11111222,11111222,11111222' 
TCOON,ioos:station:TCOON:009:1,2016-11-01T15:54:00Z,27.8398,-97.0727,0.0,3.5,175.0,5.6,'11111222,11111222,11111222' 
TCOON,ioos:station:TCOON:009:1,2016-11-01T16:00:00Z,27.8398,-97.0727,0.0,2.0,164.0,4.5,'11111222,11111222,11111222' 
TCOON,ioos:station:TCOON:009:1,2016-11-01T16:06:00Z,27.8398,-97.0727,0.0,2.4,145.0,3.5,'11111222,11111222,11111222' 
TCOON,ioos:station:TCOON:009:1,2016-11-01T16:12:00Z,27.8398,-97.0727,0.0,2.4,156.0,3.7,'11111222,11111222,11111222' 
TCOON,ioos:station:TCOON:009:1,2016-11-01T16:18:00Z,27.8398,-97.0727,0.0,2.4,156.0,3.7,'1111122,1111122,1111122' 
TCOON,ioos:station:TCOON:009:1,2016-11-01T16:24:00Z,27.8398,-97.0727,0.0,2.8,159.0,5.4,'11111222,11111222,11111222' 
TCOON,ioos:station:TCOON:009:1,2016-11-01T16:30:00Z,27.8398,-97.0727,0.0,4.0,172.0,5.5,'11111222,11111222,11111222' 
TCOON,ioos:station:TCOON:009:1,2016-11-01T16:36:00Z,27.8398,-97.0727,0.0,2.9,156.0,4.9,'11111222,11111222,11111222' 
TCOON,ioos:station:TCOON:009:1,2016-11-01T16:42:00Z,27.8398,-97.0727,0.0,3.0,141.0,4.2,'11111222,11111222,11111222' 
TCOON,ioos:station:TCOON:009:1,2016-11-01T16:48:00Z,27.8398,-97.0727,0.0,2.4,142.0,4.6,'11111222,11111222,11111222' 
TCOON,ioos:station:TCOON:009:1,2016-11-01T16:54:00Z,27.8398,-97.0727,0.0,3.2,175.0,5.5,'11111222,11111222,11111222' 
TCOON,ioos:station:TCOON:009:1,2016-11-01T17:00:00Z,27.8398,-97.0727,0.0,2.3,129.0,5.4,'11111222,11111222,11111222' 
TCOON,ioos:station:TCOON:009:1,2016-11-01T17:06:00Z,27.8398,-97.0727,0.0,3.1,170.0,4.1,'11111222,11111222,11111222' 
TCOON,ioos:station:TCOON:009:1,2016-11-01T17:12:00Z,27.8398,-97.0727,0.0,2.6,161.0,4.3,'11111222,11111222,11111222' 
TCOON,ioos:station:TCOON:009:1,2016-11-01T17:18:00Z,27.8398,-97.0727,0.0,2.6,161.0,4.3,'1111122,1111122,1111122' 
TCOON,ioos:station:TCOON:009:1,2016-11-01T17:24:00Z,27.8398,-97.0727,0.0,3.1,168.0,4.8,'11111222,11111222,11111222' 
TCOON,ioos:station:TCOON:009:1,2016-11-01T17:30:00Z,27.8398,-97.0727,0.0,4.5,174.0,6.1,'11111222,11111222,11111222' 
TCOON,ioos:station:TCOON:009:1,2016-11-01T17:36:00Z,27.8398,-97.0727,0.0,3.7,167.0,5.7,'11111222,11111222,11111222' 
TCOON,ioos:station:TCOON:009:1,2016-11-01T17:42:00Z,27.8398,-97.0727,0.0,3.1,150.0,6.3,'11111222,11111222,11111222' 
TCOON,ioos:station:TCOON:009:1,2016-11-01T17:48:00Z,27.8398,-97.0727,0.0,3.2,166.0,5.0,'11111222,11111222,11111222' 
TCOON,ioos:station:TCOON:009:1,2016-11-01T17:54:00Z,27.8398,-97.0727,0.0,3.1,152.0,5.1,'11111222,11111222,11111222' 
TCOON,ioos:station:TCOON:009:1,2016-11-01T18:00:00Z,27.8398,-97.0727,0.0,3.8,175.0,5.4,'11111222,11111222,11111222' 
TCOON,ioos:station:TCOON:009:1,2016-11-01T18:06:00Z,27.8398,-97.0727,0.0,2.7,147.0,5.4,'11111222,11111222,11111222' 
TCOON,ioos:station:TCOON:009:1,2016-11-01T18:12:00Z,27.8398,-97.0727,0.0,3.8,159.0,5.3,'11111222,11111222,11111222' 
TCOON,ioos:station:TCOON:009:1,2016-11-01T18:18:00Z,27.8398,-97.0727,0.0,3.8,159.0,5.3,'1111122,1111122,1111122' 
TCOON,ioos:station:TCOON:009:1,2016-11-01T18:24:00Z,27.8398,-97.0727,0.0,3.2,146.0,5.1,'11111222,11111222,11111222' 
TCOON,ioos:station:TCOON:009:1,2016-11-01T18:30:00Z,27.8398,-97.0727,0.0,3.5,146.0,5.4,'11111222,11111222,11111222' 
TCOON,ioos:station:TCOON:009:1,2016-11-01T18:36:00Z,27.8398,-97.0727,0.0,3.9,153.0,5.8,'11111222,11111222,11111222' 
TCOON,ioos:station:TCOON:009:1,2016-11-01T18:42:00Z,27.8398,-97.0727,0.0,2.8,162.0,5.1,'11111222,11111222,11111222' 
TCOON,ioos:station:TCOON:009:1,2016-11-01T18:48:00Z,27.8398,-97.0727,0.0,3.0,140.0,4.9,'11111222,11111222,11111222' 
TCOON,ioos:station:TCOON:009:1,2016-11-01T18:54:00Z,27.8398,-97.0727,0.0,3.9,127.0,5.8,'11111222,11111222,11111222' 
TCOON,ioos:station:TCOON:009:1,2016-11-01T19:00:00Z,27.8398,-97.0727,0.0,2.8,139.0,4.6,'11111222,11111222,11111222' 
TCOON,ioos:station:TCOON:009:1,2016-11-01T19:06:00Z,27.8398,-97.0727,0.0,2.4,149.0,5.3,'11111222,11111222,11111222' 
TCOON,ioos:station:TCOON:009:1,2016-11-01T19:12:00Z,27.8398,-97.0727,0.0,3.7,148.0,6.3,'11111222,11111222,11111222' 
TCOON,ioos:station:TCOON:009:1,2016-11-01T19:18:00Z,27.8398,-97.0727,0.0,3.7,148.0,6.3,'1111122,1111122,1111122' 
TCOON,ioos:station:TCOON:009:1,2016-11-01T19:24:00Z,27.8398,-97.0727,0.0,4.0,138.0,6.2,'11111222,11111222,11111222' 
TCOON,ioos:station:TCOON:009:1,2016-11-01T19:30:00Z,27.8398,-97.0727,0.0,3.2,130.0,4.8,'11111222,11111222,11111222' 
TCOON,ioos:station:TCOON:009:1,2016-11-01T19:36:00Z,27.8398,-97.0727,0.0,3.5,131.0,5.6,'11111222,11111222,11111222' 
TCOON,ioos:station:TCOON:009:1,2016-11-01T19:42:00Z,27.8398,-97.0727,0.0,4.1,127.0,5.5,'11111222,11111222,11111222' 
TCOON,ioos:station:TCOON:009:1,2016-11-01T19:48:00Z,27.8398,-97.0727,0.0,3.3,150.0,5.3,'11111222,11111222,11111222' 
TCOON,ioos:station:TCOON:009:1,2016-11-01T19:54:00Z,27.8398,-97.0727,0.0,3.8,132.0,5.7,'11111222,11111222,11111222' 
TCOON,ioos:station:TCOON:009:1,2016-11-01T20:00:00Z,27.8398,-97.0727,0.0,3.8,129.0,5.8,'11111222,11111222,11111222' 
TCOON,ioos:station:TCOON:009:1,2016-11-01T20:06:00Z,27.8398,-97.0727,0.0,3.3,125.0,5.2,'11111222,11111222,11111222' 
TCOON,ioos:station:TCOON:009:1,2016-11-01T20:12:00Z,27.8398,-97.0727,0.0,4.8,131.0,6.1,'11111222,11111222,11111222' 